Regional Weather Roundup
Issued by NWS

Home | Current Version | Previous Version | Text Only | Print | Product List | Glossary Off
Versions: 1 2 3 4 5 6 7 8 9 10 11 12 13 14 15 16 17 18 19 20 21 22 23 24 25 26 27 28 29 30 31 32 33 34 35 36 37 38 39 40 41 42 43 44 45 46 47 48 49 50

000
ASUS43 KDTX 180801
RWRMI
MICHIGAN HOURLY REGIONAL WEATHER ROUNDUP
NATIONAL WEATHER SERVICE DETROIT/PONTIAC MI
300 AM EST SAT NOV 18 2017

NOTE: "FAIR" INDICATES FEW OR NO CLOUDS BELOW 12,000 FEET WITH NO
SIGNIFICANT WEATHER AND/OR OBSTRUCTION TO VISIBILITY.

MIZ047>049-052>055-059>063-066>070-074>076-081>083-180900-
SOUTHEAST LOWER MICHIGAN

CITY           SKY/WX    TMP DP  RH WIND       PRES   REMARKS
ADRIAN         CLOUDY    43  41  93 SW12G21   29.60F
ALMA           CLOUDY    41  41  99 S7G18     29.56F
ANN ARBOR      RAIN      41  41 100 CALM      29.62S FOG
BAD AXE        LGT RAIN  38  38  97 S5        29.59F WCI  35
CARO           LGT RAIN  40  39  97 S9        29.57F WCI  34
DETROIT CITY   LGT RAIN  55  41  59 SW7       29.65F
DETROIT        RAIN      42  41  96 S5        29.64S FOG
FLINT          CLOUDY    41  39  93 S10       29.59F
GROSSE ILE     LGT SNOW  42  41  95 S13       29.62F
HILLSDALE      DRIZZLE   43  41  93 S13G18    29.57F
HOWELL         DRIZZLE   40  40  99 S7        29.59F

CITY           SKY/WX    TMP DP  RH WIND       PRES   REMARKS
JACKSON        LGT RAIN  43  41  93 S5        29.59F FOG
LAMBERTVILLE   LGT RAIN  45  42  90 S7        29.60F
LANSING        CLOUDY    41  41 100 S10       29.58F
LAPEER         CLOUDY    41  40  97 SW10      29.59F
MASON          CLOUDY    42  40  93 CALM      29.59F FOG
MONROE         LGT RAIN  43  41  93 S9G16     29.61F
MT. CLEMENS    LGT RAIN  41  41 100 S9        29.61F
PONTIAC        CLOUDY    40  40 100 S9        29.60F WCI  34
PORT HOPE        N/A     40  37  89 VRB3      29.58F
PORT HURON     LGT RAIN  39  37  93 S9        29.62F WCI  33
TRI CITIES     CLOUDY    41  41 100 SW8       29.57F
MIDLAND        CLOUDY    41  40  97 S3        29.56F
TROY           DRIZZLE   43  40  91 S8        29.64F
SAGINAW HB     CLOUDY    41  37  87 S10       29.56F
$$
MIZ043>046-050>051-056>058-064>065-071>073-077>080-180900-
SOUTHWEST LOWER MICHIGAN

CITY           SKY/WX    TMP DP  RH WIND       PRES   REMARKS
BATTLE CREEK   CLOUDY    42  41  96 S6        29.59F FOG
BENTON HARBOR  CLOUDY    44  41  89 SE5       29.57F FOG
BIG RAPIDS     LGT RAIN  40  39  95 SW3       29.52F
COLDWATER      DRIZZLE   44  44 100 W5        29.59R
FREMONT        DRIZZLE   43  43 100 SW6       29.54F
HOLLAND        CLOUDY    43  42  97 S7        29.56F FOG
GRAND RAPIDS   CLOUDY    43  43 100 S9        29.55F
IONIA          CLOUDY    42  41  97 S9        29.55F
KALAMAZOO      CLOUDY    43  40  89 S3        29.58F FOG
LUDINGTON      CLOUDY    41  38  90 NW7       29.54R
MARSHALL       DRIZZLE   42  41  98 CALM      29.59F
MOUNT PLEASANT CLOUDY    42  40  94 S5        29.54F FOG
MUSKEGON       CLOUDY    47  43  86 W7        29.54F
SOUTH HAVEN    CLOUDY    44  43  95 S6        29.57S FOG
$$
MIZ016>042-180900-
NORTHERN LOWER MICHIGAN

CITY           SKY/WX    TMP DP  RH WIND       PRES   REMARKS
ALPENA         LGT RAIN  35  35 100 CALM      29.58F FOG
BEAVER ISLAND  CLOUDY    38  38  99 CALM      29.54R FOG
BELLAIRE       CLOUDY    37  37 100 CALM      29.54S FOG
CADILLAC       DRIZZLE   37  37  99 S3        29.51F
CHARLEVOIX     CLOUDY    37  37 100 CALM      29.57R FOG
FRANKFORT      CLOUDY    42  40  93 NW8       29.54R
GAYLORD        CLOUDY    33  32  96 SE5       29.52F FOG     WCI  29
GRAYLING       CLOUDY    35  34  95 SE3       29.54F FOG
HARBOR SPRINGS CLOUDY    34  34  99 NE5       29.55S FOG     WCI  30
HOUGHTON LAKE  CLOUDY    36  35  96 SE5       29.54F FOG     WCI  32
MANISTEE       CLOUDY    41  39  93 W12       29.53S
OSCODA         LGT SNOW  38  37  97 S12       29.57F WCI  31
PELLSTON       CLOUDY    35  34  96 CALM      29.56F FOG
ROGERS CITY    RAIN      33  33  97 S3        29.58S
TRAVERSE CITY  CLOUDY    38  37  97 CALM      29.52S FOG
$$
MIZ007>008-015-180900-
EASTERN UPPER MICHIGAN

CITY           SKY/WX    TMP DP  RH WIND       PRES   REMARKS
KINROSS        LGT SNOW  32  32 100 E3        29.57F FOG
MACKINAC ISLAN MIX PCPN  36  36 100 E6        29.56S WCI  31
NEWBERRY       FOG       32  31  97 CALM      29.56S VSB 1
S. S. MARIE    LGT SNOW  33  32  96 NE5       29.58S VSB 3/4 WCI  29
MUNISING         N/A     39  38  96 N10       29.55F WCI  32
$$
MIZ004>006-011>014-085-180900-
CENTRAL UPPER MICHIGAN

CITY           SKY/WX    TMP DP  RH WIND       PRES   REMARKS
MANISTIQUE     CLOUDY    35  30  82 N7        29.55S WCI  29
MENOMINEE      CLOUDY    35  34  96 N8        29.57  WCI  29
SAWYER-GWINN   CLOUDY    33  33  98 N9        29.58R FOG     WCI  25
$$
MIZ001>003-009>011-084-180900-
WESTERN UPPER MICHIGAN

CITY           SKY/WX    TMP DP  RH WIND       PRES   REMARKS
IRON MOUNTAIN  CLOUDY    34  31  88 N10       29.57R WCI  26
HOUGHTON       CLOUDY    35  32  88 N5        29.61R WCI  31
COPPER HARBOR    N/A     39  33  79 NE13      29.60F WCI  31
IRONWOOD       CLOUDY   N/A N/A N/A W3        29.65R HAZE
$$

ABBREVIATIONS USED IN REMARKS
   TC - TEMPERATURE IN CELSIUS
  WCI - WIND CHILL INDEX
   HX - HEAT INDEX
  VSB - VISIBILITY




USA.gov is the U.S. government's official web portal to all federal, state and local government web resources and services.